{"data":{"norad_id":60321,"intl_designator":"2024-133W","name":"STARLINK-32198","alt_names":[],"object_type":"PAYLOAD","status":"ACTIVE","operator":null,"country":"US","launch_date":"2024-07-28","launch_site_code":"AFWTR","launch_vehicle":null,"mission":null,"orbit_class":"UNKNOWN","rcs_meters":null,"size_class":null,"mass_kg":null,"dimensions":null,"purposes":["comms"],"wikipedia_slug":null,"has_3d_model":false,"image_url":null,"decayed_at":null,"tle_current":{"epoch":"2026-09-21T18:56:24.215424Z","epoch_age_seconds":74263,"freshness":"FRESH","line1":"1 60321U 24133W   26264.78916916 -.00002124  00000+0 -51755-4 0  9999","line2":"2 60321  53.1593 103.3887 0001080  64.1897 295.9217 15.34392514121796","mean_motion":15.34392514,"eccentricity":0.000108,"inclination_deg":53.1593,"raan_deg":103.3887,"arg_perigee_deg":64.1897,"mean_anomaly_deg":295.9217,"bstar":-5.1755e-5,"rev_number":12179,"period_min":93.848215946132,"perigee_km":461.98667711822,"apogee_km":463.46430341612,"semimajor_km":6840.8624902672,"source":"CELESTRAK","updated_at":"2026-09-22T09:00:49.218472Z"}}}